Location: Newark
(13.6797°N, 8.5297°E)
Time: 21:05:56
(UTC+00:00)

Altair - Pass Details

Date: 30 January 2020
Orbit: 1502 x 1682 km, 47.2° (Epoch: 22 February)

Event Time Altitude Azimuth Distance (km) Brightness Sun altitude
Rises 03:29:02 0° 205° (SSW) 4,705 9.9 -34.7°
Reaches altitude 10° 03:32:13 10° 199° (SSW) 3,746 9.4 -34.0°
Maximum altitude 03:41:14 47° 128° (SE) 2,023 8.3 -31.8°
Drops below altitude 10° 03:50:33 10° 57° (ENE) 3,883 10.1 -29.6°
Sets 03:53:53 0° 52° (NE) 4,890 10.7 -28.8°
